GEFSSE_con_cape1000_138.txt.gz
Probability
0 0 42 42 35 32 26 26 19 19 16 16 19 13 13 13 13 13 6 6 3 3 3 3 0 0 0 0 0 0 0 0 0 0 0 0 0 0 0 0 0 0 0
0 0 42 35 32 23 26 19 19 19 23 19 19 16 16 16 13 6 6 3 3 3 3 3 0 0 0 0 0 0 0 0 0 0 0 0 0 0 0 0 0 0 0
0 0 16 35 29 26 23 23 16 19 23 23 19 16 16 13 10 6 3 3 3 3 3 0 0 0 0 0 0 0 0 0 0 0 0 0 0 0 0 0 0 0 0
0 0 13 35 29 26 23 26 23 23 23 19 16 13 10 10 10 3 3 3 3 0 0 0 0 0 0 0 0 0 0 0 0 0 0 0 0 0 0 0 0 0 0
0 0 10 29 29 26 16 26 23 23 19 16 13 10 10 10 6 3 3 3 0 0 0 0 0 0 0 0 0 0 0 0 0 0 0 0 0 0 0 0 0 0 0
0 0 3 23 23 23 16 19 19 16 16 13 13 6 6 6 6 3 3 0 0 0 0 0 0 0 0 0 0 0 0 0 0 0 0 0 0 0 0 0 0 0 0
0 0 3 19 19 16 16 13 16 16 16 13 6 6 6 6 3 0 0 0 0 0 0 0 0 0 0 0 0 0 0 0 0 0 0 0 0 0 0 0 0 0 0
0 0 6 23 19 19 13 13 13 16 13 10 10 6 6 3 0 0 0 0 0 0 0 0 0 0 0 0 0 0 0 0 0 0 0 0 0 0 0 0 0 0 0
0 0 6 10 10 16 13 13 13 10 10 10 10 10 3 0 0 0 0 0 0 0 0 0 0 0 0 0 0 0 0 0 0 0 0 0 0 0 0 0 0 0 0
0 0 3 6 10 10 10 6 10 10 6 6 3 0 0 0 0 0 0 0 0 0 0 0 0 0 0 0 0 0 0 0 0 0 0 0 0 0 0 0 0 0 0
0 0 3 3 3 3 3 3 6 3 3 0 0 0 0 0 0 0 0 0 0 0 0 0 0 0 0 0 0 0 0 0 0 0 0 0 0 0 0 0 0 0 0
0 0 3 3 3 3 3 3 3 3 0 0 0 0 0 0 0 0 0 0 0 0 0 0 0 0 0 0 0 0 0 0 0 0 0 0 0 0 0 0 0 0 0
3 0 0 3 3 3 3 3 0 0 0 0 0 0 0 0 0 0 0 0 0 0 0 0 0 0 0 0 0 0 0 0 0 0 0 0 0 0 0 0 0 0 0
3 3 0 3 3 3 3 3 0 0 0 0 0 0 0 0 0 0 0 0 0 0 0 0 0 0 0 0 0 0 0 0 0 0 0 0 0 0 0 0 0 0 0
6 3 0 0 0 0 0 0 0 0 0 0 0 0 0 0 0 0 0 0 0 0 0 0 0 0 0 0 0 0 0 0 0 0 0 0 0 0 0 0 0 0 0
3 3 3 0 0 0 0 0 0 0 0 0 0 0 0 0 0 0 0 0 0 0 0 0 0 0 0 0 0 0 0 0 0 0 0 0 0 0 0 0 0 0 0
0 3 3 0 0 0 0 0 0 0 0 0 0 0 0 0 0 0 0 0 0 0 0 0 0 0 0 0 0 0 0 0 0 0 0 0 0 0 0 0 0 0 0
0 3 3 3 0 0 0 0 0 0 0 0 0 0 0 0 0 0 0 0 0 0 0 0 0 0 0 0 0 0 0 0 0 0 0 0 0 0 0 0 0 0 0
0 0 3 3 3 0 0 0 0 0 0 0 0 0 0 0 0 0 0 0 0 0 0 0 0 0 0 0 0 0 0 0 0 0 0 0 0 0 0 0 0 0 0
0 0 0 3 3 0 0 0 0 0 0 0 0 0 0 0 0 0 0 0 0 0 0 0 0 0 0 0 0 0 0 0 0 0 0 0 0 0 0 0 0 0 0
0 0 0 0 3 3 0 0 0 0 0 0 0 0 0 0 0 0 0 0 0 0 0 0 0 0 0 0 0 0 0 0 0 0 0 0 0 0 0 0 0 0 0
0 0 0 0 0 3 3 0 0 0 0 0 0 0 0 0 0 0 0 0 0 0 0 0 0 0 0 0 0 0 0 0 0 0 0 0 0 0 0 0 0 0 0
0 0 0 0 0 0 0 0 0 0 0 0 0 0 0 0 0 0 0 0 0 0 0 0 0 0 0 0 0 0 0 0 0 0 0 0 0 0 0 0 0 0 0
0 0 0 0 0 0 0 0 0 0 0 0 0 0 0 0 0 0 0 0 0 0 0 0 0 0 0 0 0 0 0 0 0 0 0 0 0 0 0 0 0 0 0
0 0 0 0 0 0 0 0 0 0 0 0 0 0 0 0 0 0 0 0 0 0 0 0 0 0 0 0 0 0 0 0 0 0 0 0 0 0 0 0 0 0 0
0 0 0 0 0 0 0 0 0 0 0 0 0 0 0 0 0 0 0 0 0 0 0 0 0 0 0 0 0 0 0 0 0 0 0 0 0 0 0 0 0 0 0

GEFSSE_con_cape1000_144.txt.gz
Probability
0 0 61 61 58 39 32 35 35 39 45 48 42 42 29 19 16 16 13 13 10 6 6 6 3 0 0 0 0 0 0 0 0 0 0 0 0 0 0 0 0 0 0
0 3 71 61 61 48 39 39 35 42 35 39 39 29 23 13 13 13 13 10 6 6 6 3 3 0 0 0 0 0 0 0 0 0 0 0 0 0 0 0 0 0 0
0 3 45 61 61 55 45 42 39 32 32 35 29 26 19 16 16 13 13 6 6 6 6 3 3 0 0 0 0 0 0 0 0 0 0 0 0 0 0 0 0 0 0
0 3 23 65 58 55 48 39 35 26 29 29 26 23 19 16 13 13 10 6 6 6 3 3 0 0 0 0 0 0 0 0 0 0 0 0 0 0 0 0 0 0 0
0 3 19 61 58 48 45 35 29 26 29 26 23 19 19 19 16 10 10 6 6 3 3 0 0 0 0 0 0 0 0 0 0 0 0 0 0 0 0 0 0 0 0
0 3 19 58 55 52 48 39 26 26 26 26 23 19 19 19 13 10 10 6 3 3 0 0 0 0 0 0 0 0 0 0 0 0 0 0 0 0 0 0 0 0 0
0 6 16 58 58 61 58 32 26 29 26 26 19 19 19 16 10 10 10 3 0 0 0 0 0 0 0 0 0 0 0 0 0 0 0 0 0 0 0 0 0 0 0
0 6 13 52 55 55 45 32 26 26 26 26 19 16 16 13 10 10 6 0 0 0 0 0 0 0 0 0 0 0 0 0 0 0 0 0 0 0 0 0 0 0 0
0 6 13 26 39 42 39 32 29 26 26 23 16 13 13 6 6 6 3 0 0 0 0 0 0 0 0 0 0 0 0 0 0 0 0 0 0 0 0 0 0 0 0
0 3 10 16 23 23 23 26 16 23 23 19 13 6 6 6 6 6 0 0 0 0 0 0 0 0 0 0 0 0 0 0 0 0 0 0 0 0 0 0 0 0 0
0 3 6 10 16 13 10 10 16 13 10 6 6 0 0 0 0 0 0 0 0 0 0 0 0 0 0 0 0 0 0 0 0 0 0 0 0 0 0 0 0 0 0
0 3 10 10 13 13 10 6 0 0 3 0 0 0 0 0 0 0 0 0 0 0 0 0 0 0 0 0 0 0 0 0 0 0 0 0 0 0 0 0 0 0 0
3 6 6 10 10 6 6 3 0 0 0 0 0 0 0 0 0 0 0 0 0 0 0 0 0 0 0 0 0 0 0 0 0 0 0 0 0 0 0 0 0 0 0
0 3 6 6 6 6 3 0 0 0 0 0 0 0 0 0 0 0 0 0 0 0 0 0 0 0 0 0 0 0 0 0 0 0 0 0 0 0 0 0 0 0 0
0 3 6 3 6 3 3 0 0 0 0 0 0 0 0 0 0 0 0 0 0 0 0 0 0 0 0 0 0 0 0 0 0 0 0 0 0 0 0 0 0 0 0
0 3 6 6 6 3 3 0 0 0 0 0 0 0 0 0 0 0 0 0 0 0 0 0 0 0 0 0 0 0 0 0 0 0 0 0 0 0 0 0 0 0 0
0 3 6 6 3 3 3 3 3 3 0 0 0 0 0 0 0 0 0 0 0 0 0 0 0 0 0 0 0 0 0 0 0 0 0 0 0 0 0 0 0 0 0
0 6 6 6 3 3 3 3 3 3 0 0 0 0 0 0 0 0 0 0 0 0 0 0 0 0 0 0 0 0 0 0 0 0 0 0 0 0 0 0 0 0 0
0 6 10 6 3 3 3 3 3 3 0 0 0 0 0 0 0 0 0 0 0 0 0 0 0 0 0 0 0 0 0 0 0 0 0 0 0 0 0 0 0 0 0
0 0 6 6 3 3 3 3 0 0 0 0 0 0 0 0 0 0 0 0 0 0 0 0 0 0 0 0 0 0 0 0 0 0 0 0 0 0 0 0 0 0 0
0 0 6 6 3 3 3 0 0 0 0 0 0 0 0 0 0 0 0 0 0 0 0 0 0 0 0 0 0 0 0 0 0 0 0 0 0 0 0 0 0 0 0
0 0 0 6 6 3 3 0 0 0 0 0 0 0 0 0 0 0 0 0 0 0 0 0 0 0 0 0 0 0 0 0 0 0 0 0 0 0 0 0 0 0 0
0 0 0 3 3 3 3 3 0 0 0 0 0 0 0 0 0 0 0 0 0 0 0 0 0 0 0 0 0 0 0 0 0 0 0 0 0 0 0 0 0 0 0
0 0 0 0 3 3 3 3 0 0 0 0 0 0 0 0 0 0 0 0 0 0 0 0 0 0 0 0 0 0 0 0 0 0 0 0 0 0 0 0 0 0 0
0 0 0 0 0 3 3 3 3 0 0 0 0 0 0 0 0 0 0 0 0 0 0 0 0 0 0 0 0 0 0 0 0 0 0 0 0 0 0 0 0 0 0
0 0 0 0 0 0 3 3 3 3 0 0 0 0 0 0 0 0 0 0 0 0 0 0 0 0 0 0 0 0 0 0 0 0 0 0 0 0 0 0 0 0 0

GEFSSE_con_cape1000_150.txt.gz
Probability
0 26 77 84 77 74 77 81 81 71 68 65 61 55 55 52 48 39 35 29 23 23 19 16 13 10 0 0 0 0 0 0 0 0 0 0 0 0 0 0 0 0 0
0 23 77 84 74 77 77 77 74 68 61 61 61 58 55 48 39 32 32 32 23 23 13 13 6 3 0 0 0 0 0 0 0 0 0 0 0 0 0 0 0 0 0
0 23 61 84 77 71 77 77 74 65 61 61 61 58 48 35 29 29 32 29 26 13 13 6 3 0 0 0 0 0 0 0 0 0 0 0 0 0 0 0 0 0 0
0 29 45 87 77 68 74 68 65 61 61 61 55 52 39 26 29 26 29 19 13 10 6 3 3 0 0 0 0 0 0 0 0 0 0 0 0 0 0 0 0 0 0
3 29 45 84 84 68 71 68 68 61 61 58 55 42 39 32 32 26 16 13 10 6 3 3 3 3 0 0 0 0 0 0 0 0 0 0 0 0 0 0 0 0 0
3 29 52 81 84 71 71 68 65 65 58 55 52 35 32 29 29 19 13 10 10 3 3 3 3 0 0 0 0 0 0 0 0 0 0 0 0 0 0 0 0 0 0
3 23 52 77 81 71 68 68 61 61 61 45 42 32 29 29 19 10 10 10 6 3 3 3 3 0 0 0 0 0 0 0 0 0 0 0 0 0 0 0 0 0 0
6 19 48 77 74 71 71 61 65 61 48 42 35 32 29 23 13 10 10 6 3 3 3 3 0 0 0 0 0 0 0 0 0 0 0 0 0 0 0 0 0 0 0
6 19 35 55 65 71 65 65 58 58 45 42 32 29 29 16 13 10 10 6 3 3 3 0 0 0 0 0 0 0 0 0 0 0 0 0 0 0 0 0 0 0 0
10 19 35 48 55 55 48 42 39 42 42 39 29 16 13 13 10 10 6 3 3 3 0 0 0 0 0 0 0 0 0 0 0 0 0 0 0 0 0 0 0 0 0
10 16 32 45 52 48 48 29 32 26 29 19 13 6 3 10 10 6 3 3 3 0 0 0 0 0 0 0 0 0 0 0 0 0 0 0 0 0 0 0 0 0 0
13 16 26 42 48 48 32 35 32 19 23 10 6 6 6 6 6 3 0 0 0 0 0 0 0 0 0 0 0 0 0 0 0 0 0 0 0 0 0 0 0 0 0
13 16 19 26 42 45 42 35 29 19 19 19 10 6 6 6 6 3 3 0 0 0 0 0 0 0 0 0 0 0 0 0 0 0 0 0 0 0 0 0 0 0 0
6 13 16 19 32 42 39 29 23 16 16 16 10 10 6 6 6 3 3 0 0 0 0 0 0 0 0 0 0 0 0 0 0 0 0 0 0 0 0 0 0 0 0
3 3 10 13 16 32 29 19 16 10 10 13 10 10 6 6 6 0 0 0 0 0 0 0 0 0 0 0 0 0 0 0 0 0 0 0 0 0 0 0 0 0 0
0 0 3 10 13 16 13 16 13 10 10 10 10 6 6 3 0 3 0 0 0 0 0 0 0 0 0 0 0 0 0 0 0 0 0 0 0 0 0 0 0 0 0
0 0 3 3 10 10 6 3 13 10 10 10 6 6 6 3 0 0 0 0 0 0 0 0 0 0 0 0 0 0 0 0 0 0 0 0 0 0 0 0 0 0 0
0 0 3 3 3 10 0 0 3 10 10 10 6 6 3 0 0 0 0 0 0 0 0 0 0 0 0 0 0 0 0 0 0 0 0 0 0 0 0 0 0 0 0
0 0 0 3 3 0 3 0 3 10 6 10 6 6 0 0 0 0 0 0 0 0 0 0 0 0 0 0 0 0 0 0 0 0 0 0 0 0 0 0 0 0 0
0 0 0 3 3 0 0 0 3 6 6 6 3 3 0 0 0 0 0 0 0 0 0 0 0 0 0 0 0 0 0 0 0 0 0 0 0 0 0 0 0 0 0
0 0 0 3 0 0 0 0 3 6 6 3 3 0 0 0 0 0 0 0 0 0 0 0 0 0 0 0 0 0 0 0 0 0 0 0 0 0 0 0 0 0 0
0 0 0 0 0 0 0 0 3 3 6 6 3 3 0 0 0 0 0 0 0 0 0 0 0 0 0 0 0 0 0 0 0 0 0 0 0 0 0 0 0 0 0
0 0 0 0 0 0 0 0 3 3 6 6 0 0 0 0 0 0 0 0 0 0 0 0 0 0 0 0 0 0 0 0 0 0 0 0 0 0 0 0 0 0 0
0 0 0 0 0 0 0 0 3 0 3 0 0 0 0 0 0 0 0 0 0 0 0 0 0 0 0 0 0 0 0 0 0 0 0 0 0 0 0 0 0 0 0
0 0 0 0 0 0 0 0 3 3 3 3 3 0 0 0 0 0 0 0 0 0 0 0 0 0 0 0 0 0 0 0 0 0 0 0 0 0 0 0 0 0 0
0 0 0 0 0 0 0 3 3 3 3 3 0 0 0 0 0 0 0 0 0 0 0 0 0 0 0 0 0 0 0 0 0 0 0 0 0 0 0 0 0 0 0

GEFSSE_con_cape1000_156.txt.gz
Probability
10 23 81 87 90 94 94 97 90 84 77 77 74 68 61 61 65 65 61 58 45 42 39 29 26 16 10 10 0 0 0 0 0 0 0 0 0 0 0 0 0 0 0
16 29 77 94 90 94 94 87 84 84 84 81 77 65 65 65 61 58 55 48 39 32 29 26 16 16 6 0 0 0 0 0 0 0 0 0 0 0 0 0 0 0 0
23 29 71 90 94 90 90 87 84 81 77 74 74 68 65 61 61 58 55 42 39 29 23 19 13 10 3 0 0 0 0 0 0 0 0 0 0 0 0 0 0 0 0
26 35 48 87 87 90 90 87 84 71 71 71 68 68 65 65 58 58 48 45 29 23 23 13 6 3 0 0 0 0 0 0 0 0 0 0 0 0 0 0 0 0 0
26 32 42 84 84 87 84 84 77 71 71 71 68 65 61 65 55 48 45 32 23 19 16 13 6 0 0 0 0 0 0 0 0 0 0 0 0 0 0 0 0 0 0
26 29 42 84 84 81 84 81 77 71 71 68 68 65 61 58 48 45 35 29 23 13 13 13 10 3 0 0 0 0 0 0 0 0 0 0 0 0 0 0 0 0 0
23 29 39 81 77 81 81 77 81 71 71 68 65 61 58 45 45 42 32 23 13 13 10 6 3 3 0 0 0 0 0 0 0 0 0 0 0 0 0 0 0 0 0
19 29 39 68 77 77 81 77 77 74 68 68 65 58 52 45 42 32 19 13 13 10 6 3 3 3 0 0 0 0 0 0 0 0 0 0 0 0 0 0 0 0 0
19 26 35 55 65 74 77 77 71 71 65 68 65 61 45 45 35 26 13 13 10 10 6 3 3 3 0 0 0 0 0 0 0 0 0 0 0 0 0 0 0 0 0
16 19 35 42 48 48 55 55 58 61 65 58 52 32 29 26 29 19 10 10 10 10 3 3 3 0 0 0 0 0 0 0 0 0 0 0 0 0 0 0 0 0 0
10 26 35 35 35 39 32 42 48 45 39 35 26 13 10 10 10 6 6 6 10 6 3 3 3 0 0 0 0 0 0 0 0 0 0 0 0 0 0 0 0 0 0
10 19 26 29 26 35 32 19 26 35 26 16 10 10 3 3 3 3 0 3 10 3 3 3 3 0 0 0 0 0 0 0 0 0 0 0 0 0 0 0 0 0 0
10 16 19 13 16 19 19 13 13 16 16 10 10 6 3 3 3 0 0 0 0 0 0 0 0 0 0 0 0 0 0 0 0 0 0 0 0 0 0 0 0 0 0
3 10 16 10 10 13 16 10 6 10 13 10 6 3 3 3 0 0 0 0 0 0 0 0 0 0 0 0 0 0 0 0 0 0 0 0 0 0 0 0 0 0 0
0 6 6 6 6 6 13 10 10 6 6 13 3 3 0 0 0 0 0 0 0 0 0 0 0 0 0 0 0 0 0 0 0 0 0 0 0 0 0 0 0 0 0
0 0 0 6 10 3 6 10 6 6 6 6 3 3 3 0 0 0 0 0 0 0 0 0 0 0 0 0 0 0 0 0 0 0 0 0 0 0 0 0 0 0 0
0 0 0 3 6 3 3 0 3 3 6 3 3 3 3 0 0 0 0 0 0 0 0 0 0 0 0 0 0 0 0 0 0 0 0 0 0 0 0 0 0 0 0
0 0 0 3 0 3 0 0 0 3 0 0 3 6 3 0 0 0 0 0 0 0 0 0 0 0 0 0 0 0 0 0 0 0 0 0 0 0 0 0 0 0 0
0 0 0 0 0 3 0 0 0 0 0 0 0 0 3 0 0 0 0 0 0 0 0 0 0 0 0 0 0 0 0 0 0 0 0 0 0 0 0 0 0 0 0
0 0 0 0 0 0 0 0 0 0 0 0 0 0 0 0 0 0 0 0 0 0 0 0 0 0 0 0 0 0 0 0 0 0 0 0 0 0 0 0 0 0 0
0 0 0 0 0 0 0 0 0 0 0 0 0 0 0 0 0 0 0 0 0 0 0 0 0 0 0 0 0 0 0 0 0 0 0 0 0 0 0 0 0 0 0
0 0 0 0 0 0 0 0 0 0 0 0 0 0 0 0 0 0 0 0 0 0 0 0 0 0 0 0 0 0 0 0 0 0 0 0 0 0 0 0 0 0 0
0 0 0 0 0 0 0 0 0 0 0 0 0 0 0 0 0 0 0 0 0 0 0 0 0 0 0 0 0 0 0 0 0 0 0 0 0 0 0 0 0 0 0
0 0 0 0 0 0 0 0 0 0 0 0 0 0 0 0 0 0 0 0 0 0 0 0 0 0 0 0 0 0 0 0 0 0 0 0 0 0 0 0 0 0 0
0 0 0 0 0 0 0 0 0 0 0 0 0 0 0 0 0 0 0 0 0 0 0 0 0 0 0 0 0 0 0 0 0 0 0 0 0 0 0 0 0 0 0
0 0 0 0 0 0 0 0 0 0 0 0 0 0 0 0 0 0 0 0 0 0 0 0 0 0 0 0 0 0 0 0 0 0 0 0 0 0 0 0 0 0 0

GEFSSE_con_cape1000_162.txt.gz
Probability
0 6 90 94 94 94 97 90 90 90 90 87 87 84 84 84 81 71 71 65 58 52 48 42 39 32 26 19 10 3 3 3 3 0 0 0 0 0 0 0 0 0 0
0 10 90 90 90 90 94 90 90 90 90 90 84 84 81 84 71 71 68 61 45 45 42 35 29 26 26 13 6 3 3 0 0 0 0 0 0 0 0 0 0 0 0
0 23 84 87 90 87 90 94 90 90 90 90 87 81 81 71 71 68 58 55 42 39 42 29 29 26 16 6 3 3 0 0 0 0 0 0 0 0 0 0 0 0 0
6 29 55 87 87 90 90 87 87 87 87 87 84 77 71 71 71 65 58 45 45 45 35 26 23 16 10 6 3 0 0 0 0 0 0 0 0 0 0 0 0 0 0
19 32 52 65 87 87 87 87 87 84 84 77 71 71 71 71 65 61 55 48 48 42 32 26 19 13 6 0 0 0 0 0 0 0 0 0 0 0 0 0 0 0 0
13 23 45 65 65 84 84 87 87 87 77 71 65 65 65 65 61 58 52 48 45 35 23 19 16 6 3 0 0 0 0 0 0 0 0 0 0 0 0 0 0 0 0
10 26 35 61 65 65 77 81 84 77 77 65 65 65 61 61 61 61 48 42 39 29 23 19 13 6 3 0 0 0 0 0 0 0 0 0 0 0 0 0 0 0 0
13 23 39 55 55 58 61 68 68 71 74 68 55 58 61 55 61 52 39 39 35 26 19 13 13 6 0 0 0 0 0 0 0 0 0 0 0 0 0 0 0 0 0
13 19 29 45 52 55 52 55 55 65 65 55 58 58 58 52 48 39 32 35 35 26 13 13 13 10 0 0 0 0 0 0 0 0 0 0 0 0 0 0 0 0 0
6 13 13 32 35 39 42 45 45 42 45 52 52 45 42 39 39 32 32 32 29 23 13 13 13 10 3 0 0 0 0 0 0 0 0 0 0 0 0 0 0 0 0
3 6 10 13 29 35 32 29 26 35 35 32 23 13 10 16 10 13 6 10 19 19 13 13 13 10 0 0 0 0 0 0 0 0 0 0 0 0 0 0 0 0 0
3 3 10 3 10 19 26 23 23 23 16 16 10 6 6 3 3 3 3 3 3 3 6 10 13 3 0 0 0 0 0 0 0 0 0 0 0 0 0 0 0 0 0
3 10 6 0 3 10 19 16 13 13 3 6 6 6 6 3 3 3 3 0 3 3 3 3 3 0 0 0 0 0 0 0 0 0 0 0 0 0 0 0 0 0 0
3 3 3 0 3 3 6 6 6 6 3 3 6 6 3 0 3 3 3 3 0 0 0 0 0 0 0 0 0 0 0 0 0 0 0 0 0 0 0 0 0 0 0
0 3 0 0 3 3 6 3 0 0 0 3 3 6 3 3 0 0 3 0 0 0 0 0 0 0 0 0 0 0 0 0 0 0 0 0 0 0 0 0 0 0 0
0 0 0 0 3 3 3 0 0 0 0 0 0 3 3 3 0 0 0 0 0 0 0 0 0 0 0 0 0 0 0 0 0 0 0 0 0 0 0 0 0 0 0
0 0 0 0 0 3 0 0 0 0 0 0 0 0 3 3 0 0 0 0 0 0 0 0 0 0 0 0 0 0 0 0 0 0 0 0 0 0 0 0 0 0 0
0 0 0 0 0 0 3 0 0 0 0 0 0 0 0 0 0 0 0 0 0 0 0 0 0 0 0 0 0 0 0 0 0 0 0 0 0 0 0 0 0 0 0
0 0 0 0 0 0 0 0 0 0 0 0 0 0 0 0 0 0 0 0 0 0 0 0 0 0 0 0 0 0 0 0 0 0 0 0 0 0 0 0 0 0 0
0 0 0 0 0 0 0 0 0 0 0 0 0 0 0 0 0 0 0 0 0 0 0 0 0 0 0 0 0 0 0 0 0 0 0 0 0 0 0 0 0 0 0
0 0 0 0 0 0 0 0 0 0 0 0 0 0 0 0 0 0 0 0 0 0 0 0 0 0 0 0 0 0 0 0 0 0 0 0 0 0 0 0 0 0 0
0 0 0 0 0 0 0 0 0 0 0 0 0 0 0 0 0 0 0 0 0 0 0 0 0 0 0 0 0 0 0 0 0 0 0 0 0 0 0 0 0 0 0
0 0 0 0 0 0 0 0 0 0 0 0 0 0 0 0 0 0 0 0 0 0 0 0 0 0 0 0 0 0 0 0 0 0 0 0 0 0 0 0 0 0 0
0 0 0 0 0 0 0 0 0 0 0 0 0 0 0 0 0 0 0 0 0 0 0 0 0 0 0 0 0 0 0 0 0 0 0 0 0 0 0 0 0 0 0
0 0 0 0 0 0 0 0 0 0 0 0 0 0 0 0 0 0 0 0 0 0 0 0 0 0 0 0 0 0 0 0 0 0 0 0 0 0 0 0 0 0 0
0 0 0 0 0 0 0 0 0 0 0 0 0 0 0 0 0 0 0 0 0 0 0 0 0 0 0 0 0 0 0 0 0 0 0 0 0 0 0 0 0 0 0

GEFSSE_con_cape1000_168.txt.gz
Probability
0 0 39 71 74 77 84 84 84 87 90 90 90 87 90 94 90 87 81 74 71 71 68 61 52 45 39 32 23 13 10 3 6 6 3 0 0 0 0 0 0 0 0
0 0 32 68 68 71 74 71 77 87 90 90 90 90 90 90 90 84 77 71 68 55 58 55 48 45 39 26 23 13 6 6 6 6 3 0 0 0 0 0 0 0 0
0 3 29 52 65 68 68 71 74 74 81 87 87 87 87 87 84 81 74 71 58 58 58 48 48 39 32 26 16 10 6 6 0 0 0 0 0 0 0 0 0 0 0
0 6 26 48 52 65 61 61 61 61 68 77 81 81 77 84 77 84 74 68 58 55 52 48 42 32 32 19 10 6 3 3 0 0 0 0 0 0 0 0 0 0 0
0 6 23 45 48 52 61 65 61 58 61 61 74 74 74 71 68 65 68 65 52 52 52 42 35 29 26 16 6 3 3 0 0 0 0 0 0 0 0 0 0 0 0
3 10 23 42 45 48 48 58 61 61 61 61 65 68 61 61 65 58 61 55 52 52 52 39 32 26 19 6 6 3 0 0 0 0 0 0 0 0 0 0 0 0 0
0 10 23 32 45 45 48 52 52 55 58 58 58 55 52 58 55 52 48 42 45 48 45 32 26 26 13 6 6 6 3 0 0 0 0 0 0 0 0 0 0 0 0
0 6 13 29 39 39 42 42 48 52 52 52 58 52 45 45 45 45 39 35 39 42 35 32 23 19 13 6 6 6 0 0 0 0 0 0 0 0 0 0 0 0 0
0 10 10 16 23 32 32 35 42 45 52 52 48 52 42 35 35 32 35 35 35 32 35 29 19 16 13 6 6 6 0 0 0 0 0 0 0 0 0 0 0 0 0
6 10 6 6 16 19 19 23 32 39 39 39 32 23 23 26 29 29 29 23 23 26 19 23 16 10 13 10 6 0 0 0 0 0 0 0 0 0 0 0 0 0 0
3 6 6 6 6 10 10 16 19 13 13 10 13 10 10 6 13 10 3 3 16 13 19 10 6 3 3 3 0 0 0 0 0 0 0 0 0 0 0 0 0 0 0
3 3 0 6 6 6 3 3 6 3 6 3 3 0 3 0 0 0 3 3 3 3 3 3 6 3 0 0 0 0 0 0 0 0 0 0 0 0 0 0 0 0 0
3 3 0 3 6 3 3 3 3 3 3 3 3 0 0 0 0 0 0 0 0 0 0 3 3 0 0 0 0 0 0 0 0 0 0 0 0 0 0 0 0 0 0
3 0 0 0 6 3 3 3 3 3 3 3 0 0 0 0 0 0 0 0 0 0 0 0 0 0 0 0 0 0 0 0 0 0 0 0 0 0 0 0 0 0 0
3 0 0 0 0 3 3 3 3 3 0 0 0 0 0 0 0 0 0 0 0 0 0 0 0 0 0 0 0 0 0 0 0 0 0 0 0 0 0 0 0 0 0
0 0 0 0 0 0 3 3 3 3 0 0 0 0 0 0 0 0 0 0 0 0 0 0 0 0 0 0 0 0 0 0 0 0 0 0 0 0 0 0 0 0 0
0 0 0 0 0 0 0 3 3 3 0 0 0 0 0 0 0 0 0 0 0 0 0 0 0 0 0 0 0 0 0 0 0 0 0 0 0 0 0 0 0 0 0
0 0 0 0 0 0 0 0 3 3 3 0 0 0 0 0 0 0 0 0 0 0 0 0 0 0 0 0 0 0 0 0 0 0 0 0 0 0 0 0 0 0 0
0 0 0 0 0 0 0 0 0 3 3 0 0 0 0 0 0 0 0 0 0 0 0 0 0 0 0 0 0 0 0 0 0 0 0 0 0 0 0 0 0 0 0
0 0 0 0 0 0 0 0 0 0 0 0 0 0 0 0 0 0 0 0 0 0 0 0 0 0 0 0 0 0 0 0 0 0 0 0 0 0 0 0 0 0 0
0 0 0 0 0 0 0 0 0 0 0 0 0 0 0 0 0 0 0 0 0 0 0 0 0 0 0 0 0 0 0 0 0 0 0 0 0 0 0 0 0 0 0
0 0 0 0 0 0 0 0 0 0 0 0 0 0 0 0 0 0 0 0 0 0 0 0 0 0 0 0 0 0 0 0 0 0 0 0 0 0 0 0 0 0 0
0 0 0 0 0 0 0 0 0 0 0 0 0 0 0 0 0 0 0 0 0 0 0 0 0 0 0 0 0 0 0 0 0 0 0 0 0 0 0 0 0 0 0
0 0 0 0 0 0 0 0 0 0 0 0 0 0 0 0 0 0 0 0 0 0 0 0 0 0 0 0 0 0 0 0 0 0 0 0 0 0 0 0 0 0 0
0 0 0 0 0 0 0 0 0 0 0 0 0 0 0 0 0 0 0 0 0 0 0 0 0 0 0 0 0 0 0 0 0 0 0 0 0 0 0 0 0 0 0
0 0 0 0 0 0 0 0 0 0 0 0 0 0 0 0 0 0 0 0 0 0 0 0 0 0 0 0 0 0 0 0 0 0 0 0 0 0 0 0 0 0 0

GEFSSE_con_cape1000_174.txt.gz
Probability
0 6 23 26 48 58 55 55 61 68 68 77 84 84 84 84 84 87 90 90 87 87 74 65 58 55 45 35 26 16 16 13 6 6 6 3 0 0 0 0 0 0 0
0 6 23 26 39 45 52 45 52 58 65 68 77 77 81 81 84 84 84 90 81 81 68 65 52 48 39 35 26 23 16 13 13 10 10 0 0 0 0 0 0 0 0
0 6 13 26 32 35 48 48 45 52 55 55 58 65 74 71 84 81 84 81 71 71 65 58 55 52 48 39 26 26 19 13 10 10 6 0 0 0 0 0 0 0 0
3 10 10 26 29 35 39 42 48 48 48 55 55 58 61 71 74 71 71 65 65 61 58 55 52 52 45 35 26 26 19 10 10 6 0 0 0 0 0 0 0 0 0
6 13 10 26 29 35 35 39 42 45 45 48 48 52 55 58 65 65 68 61 61 55 52 52 52 45 35 32 23 26 13 10 10 6 0 0 0 0 0 0 0 0 0
6 3 10 13 16 29 29 35 35 39 39 45 48 48 48 48 52 65 58 52 55 48 42 42 42 45 35 29 23 19 13 13 6 0 0 0 0 0 0 0 0 0 0
6 3 6 10 16 19 23 26 29 29 35 42 45 45 45 48 48 52 48 42 39 39 39 35 35 32 35 29 23 19 13 3 0 0 0 0 0 0 0 0 0 0 0
6 3 3 6 13 19 23 23 23 26 29 35 39 42 39 45 48 39 32 35 35 26 35 35 32 26 23 26 19 19 13 0 0 0 0 0 0 0 0 0 0 0 0
6 3 3 3 3 13 16 19 19 19 23 29 32 35 32 39 42 39 29 29 29 23 23 26 26 26 26 16 19 6 0 0 0 0 0 0 0 0 0 0 0 0 0
6 3 3 3 3 3 13 3 13 13 16 16 19 16 19 16 23 29 26 23 23 19 16 13 19 23 23 16 16 3 0 0 0 0 0 0 0 0 0 0 0 0 0
3 3 3 3 0 3 0 3 3 10 10 10 6 3 6 10 6 3 3 3 13 10 10 13 10 10 10 6 3 0 0 0 0 0 0 0 0 0 0 0 0 0 0
6 3 3 3 3 3 0 0 10 10 10 10 10 3 6 6 0 0 0 0 0 3 3 3 6 6 3 3 3 0 0 0 0 0 0 0 0 0 0 0 0 0 0
6 6 3 0 3 3 0 0 10 13 16 10 6 3 6 6 6 3 3 0 0 0 3 3 3 3 6 3 10 3 0 0 3 0 0 0 0 0 0 0 0 0 0
3 6 3 3 3 0 0 0 0 10 10 6 6 3 6 6 6 6 3 3 3 6 6 10 10 3 3 3 3 3 3 3 3 0 0 0 0 0 0 0 0 0 0
0 6 6 3 0 0 0 0 0 3 3 6 3 3 3 3 0 3 0 0 3 3 0 6 6 0 0 3 3 0 0 3 0 0 0 0 0 0 0 0 0 0 0
0 0 6 0 0 0 0 0 0 0 3 3 3 3 3 0 0 0 0 0 0 0 0 0 3 0 0 0 0 0 0 0 0 0 0 0 0 0 0 0 0 0 0
0 0 0 0 0 0 0 0 0 0 0 3 3 3 0 0 0 0 0 0 0 0 0 0 0 0 0 0 0 0 0 0 0 0 0 0 0 0 0 0 0 0 0
0 0 0 0 0 0 0 0 0 0 0 3 0 0 0 0 0 0 0 0 0 0 0 0 0 0 0 0 0 0 0 0 0 0 0 0 0 0 0 0 0 0 0
0 0 0 0 0 0 0 0 0 0 0 0 3 0 0 0 0 0 0 0 0 0 0 0 0 0 0 0 0 0 0 0 0 0 0 0 0 0 0 0 0 0 0
0 0 0 0 0 0 0 0 0 0 0 0 3 0 0 0 0 0 0 0 0 0 0 0 0 0 0 0 0 0 0 0 0 0 0 0 0 0 0 0 0 0 0
0 0 0 0 0 0 0 0 0 0 0 0 3 0 0 0 0 0 0 0 0 0 0 0 0 0 0 0 0 0 0 0 0 0 0 0 0 0 0 0 0 0 0
0 0 0 0 0 0 0 0 0 0 0 0 0 0 0 0 0 0 0 0 0 0 0 0 0 0 0 0 0 0 0 0 0 0 0 0 0 0 0 0 0 0 0
0 0 0 0 0 0 0 0 0 0 0 0 0 0 0 0 0 0 0 0 0 0 0 0 0 0 0 0 0 0 0 0 0 0 0 0 0 0 0 0 0 0 0
0 0 0 0 0 0 0 0 0 0 0 0 0 0 0 0 0 0 0 0 0 0 0 0 0 0 0 0 0 0 0 0 0 0 0 0 0 0 0 0 0 0 0
0 0 0 0 0 0 0 0 0 0 0 0 0 0 0 0 0 0 0 0 0 0 0 0 0 0 0 0 0 0 0 0 0 0 0 0 0 0 0 0 0 0 0
0 0 0 0 0 0 0 0 0 0 0 0 0 0 0 0 0 0 0 0 0 0 0 0 0 0 0 0 0 0 0 0 0 0 0 0 0 0 0 0 0 0 0

GEFSSE_con_cape1000_180.txt.gz
Probability
3 6 26 29 29 35 35 42 48 48 48 52 65 68 74 77 74 84 84 84 87 84 84 71 58 55 58 42 32 29 16 13 10 13 10 6 6 0 0 3 3 3 0
6 13 26 26 29 32 29 29 39 48 48 52 52 58 61 68 74 77 77 81 81 74 68 71 55 58 48 42 35 29 23 19 16 13 13 6 3 0 3 0 0 0 0
10 13 23 23 26 29 29 29 29 35 42 48 52 52 55 61 65 71 74 74 77 71 58 58 52 52 52 48 42 32 29 23 19 13 13 0 0 3 3 3 0 0 0
10 6 13 23 23 26 32 29 29 29 35 42 42 42 52 55 61 65 65 65 68 65 55 52 48 42 48 45 42 32 29 23 19 13 0 0 0 3 3 3 0 0 0
6 6 16 16 19 19 19 23 26 26 29 29 42 42 42 48 52 58 58 61 55 48 48 52 45 45 42 39 45 32 29 23 19 10 0 0 0 3 3 3 0 0 0
6 6 6 13 16 16 16 19 23 26 26 26 29 39 35 42 48 48 55 55 48 42 39 45 48 45 45 42 35 29 29 29 6 0 0 0 0 6 6 3 0 0 0
6 6 6 6 10 10 13 13 16 19 26 26 26 29 35 42 42 48 52 42 45 39 35 32 42 42 42 39 29 23 29 16 0 0 0 0 0 10 6 3 0 0 0
6 6 3 6 3 3 6 10 13 16 19 19 19 23 29 35 42 39 35 39 35 35 32 32 29 39 32 29 29 19 16 3 0 0 0 0 0 10 10 3 3 0 0
3 3 3 3 3 3 3 10 3 10 13 16 19 19 19 26 29 32 32 39 29 26 26 32 32 23 23 26 26 16 6 0 0 0 0 0 0 6 6 3 3 0 0
3 0 3 3 3 3 3 0 0 0 10 13 16 13 6 6 10 19 23 19 26 23 16 23 26 23 16 16 16 6 0 0 0 0 0 0 0 6 6 6 3 0 0
3 0 0 3 3 3 0 0 0 0 3 3 10 3 0 0 0 0 0 3 6 13 16 16 23 16 10 3 6 0 0 0 0 0 0 0 6 10 10 6 3 0 0
3 3 0 0 3 3 0 0 0 0 0 0 3 3 0 0 0 0 0 0 3 3 6 6 13 10 0 0 0 0 0 0 0 0 0 0 10 10 13 6 3 0 0
3 3 3 0 0 0 0 0 0 0 0 3 6 3 3 0 0 0 0 0 0 0 0 0 0 0 0 0 0 0 0 0 0 0 0 0 3 10 10 6 3 0 0
0 0 0 0 0 0 0 0 0 0 0 0 3 3 0 0 0 0 0 0 0 0 0 0 0 0 0 0 0 0 0 0 0 0 0 0 3 3 6 6 6 0 0
0 0 0 0 0 0 0 0 0 0 0 0 0 0 0 0 0 0 0 0 0 0 0 0 0 0 0 0 0 0 0 0 0 0 0 0 0 3 3 3 6 3 3
0 0 0 0 0 0 0 0 0 0 0 0 0 0 0 0 0 0 0 0 0 0 0 0 0 0 0 0 0 0 0 0 0 0 0 0 0 0 3 3 3 6 6
0 0 0 0 0 0 0 0 0 0 0 0 0 0 0 0 0 0 0 0 0 0 0 0 0 0 0 0 0 0 0 0 0 0 0 0 0 0 0 0 0 3 10
0 0 0 0 0 0 0 0 0 0 0 0 0 0 0 0 0 0 0 0 0 0 0 0 0 0 0 0 0 0 0 0 0 0 0 0 0 0 0 0 0 3 0
0 0 0 0 0 0 0 0 0 0 0 0 0 0 0 0 0 0 0 0 0 0 0 0 0 0 0 0 0 0 0 0 0 0 0 0 0 0 0 0 0 0 6
0 0 0 0 0 0 0 0 0 0 0 0 0 0 0 0 0 0 0 0 0 0 0 0 0 0 0 0 0 0 0 0 0 0 0 0 0 0 0 0 0 0 0
0 0 0 0 0 0 0 0 0 0 0 0 0 0 0 0 0 0 0 0 0 0 0 0 0 0 0 0 0 0 0 0 0 0 0 0 0 0 0 0 0 0 0
0 0 0 0 0 0 0 0 0 0 0 0 0 0 0 0 0 0 0 0 0 0 0 0 0 0 0 0 0 0 0 0 0 0 0 0 0 0 0 0 0 0 0
0 0 0 0 0 0 0 0 0 0 0 0 0 0 0 0 0 0 0 0 0 0 0 0 0 0 0 0 0 0 0 0 0 0 0 0 0 0 0 0 0 0 0
0 0 0 0 0 0 0 0 0 0 0 0 0 0 0 0 0 0 0 0 0 0 0 0 0 0 0 0 0 0 0 0 0 0 0 0 0 0 0 0 0 0 0
0 0 0 0 0 0 0 0 0 0 0 0 0 0 0 0 0 0 0 0 0 0 0 0 0 0 0 0 0 0 0 0 0 0 0 0 0 0 0 0 0 0 0
0 0 0 0 0 0 0 0 0 0 0 0 0 0 0 0 0 0 0 0 0 0 0 0 0 0 0 0 0 0 0 0 0 0 0 0 0 0 0 0 0 0 0

GEFSSE_con_cape1000_186.txt.gz
Probability
0 6 23 23 29 29 32 32 35 42 45 48 48 52 58 68 68 68 74 74 74 74 65 61 61 55 52 52 45 35 39 29 19 13 13 6 6 10 3 3 3 0 3
0 10 23 23 23 19 29 29 32 32 32 45 45 48 45 61 65 68 71 68 61 68 61 58 52 45 45 48 39 35 35 26 19 16 13 10 6 3 0 3 0 0 0
0 13 16 23 23 16 16 29 29 29 32 32 39 45 48 48 55 65 65 65 65 61 65 58 52 42 35 42 32 26 29 26 29 19 10 0 0 3 0 3 6 3 3
3 10 16 19 23 23 16 16 26 26 29 29 29 32 42 45 45 48 55 58 58 58 58 48 45 42 42 45 35 32 23 26 26 16 0 0 0 0 0 3 6 3 0
6 10 13 13 16 16 13 13 16 19 23 26 26 29 29 39 39 45 45 55 52 52 45 42 45 39 39 42 39 26 26 23 23 6 0 0 0 0 3 3 3 3 3
6 6 10 13 13 16 13 10 13 16 19 19 26 26 26 23 39 39 42 48 48 48 35 32 32 39 39 39 39 29 23 29 13 3 0 0 0 0 6 10 6 3 3
6 6 6 10 13 13 13 10 10 10 16 19 19 23 26 26 26 29 35 39 35 39 35 29 32 32 32 35 35 32 32 19 3 0 0 0 0 0 6 10 10 3 3
6 6 6 6 6 6 6 3 6 6 6 13 16 16 19 19 23 26 32 35 35 23 29 29 29 23 26 26 32 35 26 3 3 0 0 0 0 0 6 10 13 10 3
6 6 6 6 6 6 3 0 0 3 3 6 6 13 13 19 19 16 23 26 19 23 19 19 29 23 16 19 26 29 19 0 0 0 0 0 0 3 6 13 13 3 3
3 3 6 6 6 3 3 0 0 0 0 3 6 6 6 6 16 16 16 13 16 10 16 16 23 26 19 19 19 10 0 0 0 0 0 0 0 6 6 10 16 10 3
3 3 3 6 3 3 0 0 0 0 0 0 0 0 0 3 3 3 0 0 3 10 6 10 13 16 13 3 6 0 0 0 0 0 0 0 0 6 6 13 13 10 6
3 3 3 0 3 3 0 0 0 0 0 0 0 0 0 0 0 0 0 0 0 0 0 6 10 0 0 0 0 0 0 0 0 0 0 0 0 6 6 10 13 13 6
0 3 3 0 0 3 0 0 0 0 0 0 0 0 0 0 0 0 0 0 0 0 0 0 0 0 0 0 0 0 0 0 0 0 0 0 0 3 6 6 10 6 10
0 0 3 0 0 0 0 0 0 0 0 0 0 0 0 0 0 0 0 0 0 0 0 0 0 0 0 0 0 0 0 0 0 0 0 0 0 0 6 6 6 6 6
0 0 0 0 0 0 0 0 0 0 0 0 0 0 0 0 0 0 0 0 0 0 0 0 0 0 0 0 0 0 0 0 0 0 0 0 0 0 3 10 10 6 6
0 0 0 0 0 0 0 0 0 0 0 0 0 0 0 0 0 0 0 0 0 0 0 0 0 0 0 0 0 0 0 0 0 0 0 0 0 0 0 3 6 6 6
0 0 0 0 0 0 0 0 0 0 0 0 0 0 0 0 0 0 0 0 0 0 0 0 0 0 0 0 0 0 0 0 0 0 0 0 0 0 0 3 10 6 6
0 0 0 0 0 0 0 0 0 0 0 0 0 0 0 0 0 0 0 0 0 0 0 0 0 0 0 0 0 0 0 0 0 0 0 0 0 0 0 0 0 3 6
0 0 0 0 0 0 0 0 0 0 0 0 0 0 0 0 0 0 0 0 0 0 0 0 0 0 0 0 0 0 0 0 0 0 0 0 0 0 0 0 0 0 0
0 0 0 0 0 0 0 0 0 0 0 0 0 0 0 0 0 0 0 0 0 0 0 0 0 0 0 0 0 0 0 0 0 0 0 0 0 0 0 0 0 0 0
0 0 0 0 0 0 0 0 0 0 0 0 0 0 0 0 0 0 0 0 0 0 0 0 0 0 0 0 0 0 0 0 0 0 0 0 0 0 0 0 0 0 0
0 0 0 0 0 0 0 0 0 0 0 0 0 0 0 0 0 0 0 0 0 0 0 0 0 0 0 0 0 0 0 0 0 0 0 0 0 0 0 0 0 0 0
0 0 0 0 0 0 0 0 0 0 0 0 0 0 0 0 0 0 0 0 0 0 0 0 0 0 0 0 0 0 0 0 0 0 0 0 0 0 0 0 0 0 0
0 0 0 0 0 0 0 0 0 0 0 0 0 0 0 0 0 0 0 0 0 0 0 0 0 0 0 0 0 0 0 0 0 0 0 0 0 0 0 0 0 0 0
0 0 0 0 0 0 0 0 0 0 0 0 0 0 0 0 0 0 0 0 0 0 0 0 0 0 0 0 0 0 0 0 0 0 0 0 0 0 0 0 0 0 0
0 0 0 0 0 0 0 0 0 0 0 0 0 0 0 0 0 0 0 0 0 0 0 0 0 0 0 0 0 0 0 0 0 0 0 0 0 0 0 0 0 0 0

GEFSSE_con_cape1000_192.txt.gz
Probability
0 0 19 23 29 32 32 35 32 29 32 35 39 45 55 58 61 61 68 61 65 61 68 58 55 48 48 42 42 35 32 29 23 19 13 13 6 6 10 6 10 0 3
0 3 19 19 23 16 16 29 32 32 29 29 32 35 39 48 52 55 58 58 58 52 58 48 48 52 39 42 32 35 35 29 16 16 19 13 6 6 10 6 6 0 3
0 6 19 16 16 13 13 13 13 32 32 32 29 32 32 35 35 45 45 48 42 45 45 52 55 45 39 39 29 29 29 23 23 19 13 6 6 6 10 6 3 3 3
3 6 16 16 16 16 13 13 13 13 19 26 29 29 32 32 32 35 35 42 42 39 39 39 42 48 39 39 32 29 29 19 23 13 6 0 0 6 6 3 3 6 6
0 3 16 16 16 13 10 10 10 13 13 13 23 26 29 29 29 29 32 39 35 39 35 35 35 35 35 39 32 29 26 26 23 6 0 0 0 6 6 3 0 6 6
0 3 10 13 13 10 10 10 10 10 10 13 13 16 23 23 26 26 26 29 29 29 32 35 32 32 29 29 32 26 35 26 10 3 0 0 0 0 6 10 3 3 6
3 3 10 10 13 10 10 6 10 10 10 10 6 6 10 19 23 26 26 26 29 26 32 26 23 23 23 19 19 23 29 19 3 0 0 0 0 0 6 10 6 3 3
3 3 6 6 10 6 6 0 0 0 6 6 6 6 6 10 16 23 23 26 19 23 26 13 10 13 19 19 19 13 16 0 0 0 0 0 0 0 10 10 13 3 6
3 3 6 6 6 6 3 3 0 0 0 0 0 3 3 3 6 10 13 10 16 16 19 6 3 6 10 6 16 10 0 0 0 0 0 0 0 3 10 10 10 10 10
3 3 3 3 6 3 3 3 3 0 0 0 0 0 0 0 3 10 10 3 13 10 10 6 0 0 0 6 3 0 0 0 0 0 0 0 0 3 10 10 10 6 6
3 3 3 3 3 0 0 0 0 0 0 0 0 0 0 0 0 0 0 3 6 3 10 3 0 0 0 0 0 0 0 0 0 0 0 0 0 3 10 10 13 13 10
0 3 3 3 3 0 0 0 0 0 0 0 0 0 0 0 0 0 0 0 3 3 0 0 0 0 0 0 0 0 0 0 0 0 0 0 0 6 3 10 16 13 10
0 0 3 3 3 0 0 0 0 0 0 0 0 0 0 0 0 0 0 0 0 0 0 0 0 0 0 0 0 0 0 0 0 0 0 0 0 0 3 3 13 13 16
0 0 0 0 3 0 0 0 0 0 0 0 0 0 0 0 0 0 0 0 0 0 0 0 0 0 0 0 0 0 0 0 0 0 0 0 0 0 3 3 6 6 13
0 0 0 0 0 0 0 0 0 0 0 0 0 0 0 0 0 0 0 0 0 0 0 0 0 0 0 0 0 0 0 0 0 0 0 0 0 0 0 6 6 3 6
0 0 0 0 0 0 0 0 0 0 0 0 0 0 0 0 0 0 0 0 0 0 0 0 0 0 0 0 0 0 0 0 0 0 0 0 0 0 0 0 3 3 3
0 0 0 0 0 0 0 0 0 0 0 0 0 0 0 0 0 0 0 0 0 0 0 0 0 0 0 0 0 0 0 0 0 0 0 0 0 0 0 0 0 3 6
0 0 0 0 0 0 0 0 0 0 0 0 0 0 0 0 0 0 0 0 0 0 0 0 0 0 0 0 0 0 0 0 0 0 0 0 0 0 0 0 0 0 0
0 0 0 0 0 0 0 0 0 0 0 0 0 0 0 0 0 0 0 0 0 0 0 0 0 0 0 0 0 0 0 0 0 0 0 0 0 0 0 0 0 0 0
0 0 0 0 0 0 0 0 0 0 0 0 0 0 0 0 0 0 0 0 0 0 0 0 0 0 0 0 0 0 0 0 0 0 0 0 0 0 0 0 0 0 0
0 0 0 0 0 0 0 0 0 0 0 0 0 0 0 0 0 0 0 0 0 0 0 0 0 0 0 0 0 0 0 0 0 0 0 0 0 0 0 0 0 0 0
0 0 0 0 0 0 0 0 0 0 0 0 0 0 0 0 0 0 0 0 0 0 0 0 0 0 0 0 0 0 0 0 0 0 0 0 0 0 0 0 0 0 0
0 0 0 0 0 0 0 0 0 0 0 0 0 0 0 0 0 0 0 0 0 0 0 0 0 0 0 0 0 0 0 0 0 0 0 0 0 0 0 0 0 0 0
0 0 0 0 0 0 0 0 0 0 0 0 0 0 0 0 0 0 0 0 0 0 0 0 0 0 0 0 0 0 0 0 0 0 0 0 0 0 0 0 0 0 0
0 0 0 0 0 0 0 0 0 0 0 0 0 0 0 0 0 0 0 0 0 0 0 0 0 0 0 0 0 0 0 0 0 0 0 0 0 0 0 0 0 0 0
0 0 0 0 0 0 0 0 0 0 0 0 0 0 0 0 0 0 0 0 0 0 0 0 0 0 0 0 0 0 0 0 0 0 0 0 0 0 0 0 0 0 0

GEFSSE_con_cape1000_198.txt.gz
Probability
3 10 19 26 29 29 32 39 42 42 42 45 45 48 55 58 52 52 58 58 65 58 48 42 45 45 35 32 29 29 26 16 13 16 13 6 10 13 13 10 10 0 6
0 13 19 23 26 29 29 29 29 32 39 39 42 39 39 35 42 39 42 48 48 48 45 48 42 45 42 29 29 32 23 23 19 23 23 16 10 6 6 13 3 3 3
3 16 19 19 19 23 26 26 26 26 26 26 32 35 35 32 29 35 35 32 42 42 35 39 45 39 39 35 26 29 26 29 23 13 6 6 3 6 10 6 3 3 6
6 16 16 19 19 23 19 19 16 16 19 23 23 26 26 29 32 29 32 32 29 42 39 29 29 29 26 32 26 26 32 29 16 16 6 3 3 6 6 6 6 3 3
13 16 16 19 19 16 16 16 16 16 16 16 19 23 19 26 26 29 26 29 26 23 26 32 29 26 26 19 26 23 23 26 23 6 3 6 6 10 6 6 6 6 6
13 16 19 16 16 13 13 13 16 16 16 13 10 10 13 16 23 19 23 23 23 23 16 16 19 26 29 19 23 13 16 23 6 0 10 10 10 10 10 10 10 13 10
10 16 13 13 13 10 10 13 10 10 6 6 10 10 10 10 10 19 23 23 23 19 13 13 10 10 13 19 13 19 13 10 3 0 6 10 10 10 10 10 16 13 13
10 6 6 10 10 6 10 6 6 6 6 3 3 6 6 6 3 3 13 13 16 16 16 13 6 10 13 10 13 16 3 3 0 0 3 6 10 13 13 13 13 16 10
3 3 10 6 6 3 3 3 3 3 3 0 0 0 0 0 3 3 3 10 13 13 16 13 10 6 3 6 10 6 0 0 0 3 3 6 10 10 13 13 13 13 13
3 3 3 6 6 3 3 3 3 3 3 3 0 0 0 0 0 0 3 3 10 13 13 13 10 6 0 0 3 0 0 0 0 0 6 3 0 6 13 13 13 13 16
3 3 3 3 3 3 3 3 3 3 0 0 0 0 0 0 0 0 0 0 6 10 10 13 6 6 0 0 0 0 0 0 3 3 3 0 3 3 6 10 10 10 10
3 3 3 3 3 0 0 3 3 3 0 0 0 0 0 0 0 0 0 0 0 3 10 10 3 0 0 0 0 0 0 0 0 3 0 0 3 3 3 10 3 10 10
0 0 0 3 3 3 0 0 3 3 3 0 0 0 0 0 0 0 0 0 0 0 10 10 3 0 0 0 0 0 0 0 0 0 0 0 0 0 3 6 6 3 3
0 0 0 0 0 0 0 0 0 3 3 0 0 0 0 0 0 0 0 0 0 0 10 10 10 0 0 0 0 0 0 0 0 0 0 0 0 0 0 3 6 3 6
0 0 0 0 0 0 0 0 0 0 3 0 0 0 0 0 0 0 0 0 0 0 6 10 6 0 0 0 0 0 0 0 0 0 0 0 0 0 0 0 0 3 3
0 0 0 0 0 0 0 0 0 0 0 0 0 0 0 0 0 0 0 0 0 0 0 3 3 0 0 0 0 0 0 0 0 0 0 0 0 0 0 3 0 0 3
0 0 0 0 0 0 0 0 0 0 0 0 0 0 0 0 0 0 0 0 0 0 0 0 0 3 3 0 0 0 0 0 0 0 0 0 0 0 0 0 0 0 3
0 0 0 0 0 0 0 0 0 0 0 0 0 0 0 0 0 0 0 0 0 0 0 0 0 0 0 0 0 0 0 0 0 0 0 0 0 0 0 0 0 0 0
0 0 0 0 0 0 0 0 0 0 0 0 0 0 0 0 0 0 0 0 0 0 0 0 0 0 0 0 0 0 0 0 0 0 0 0 0 0 0 0 0 0 0
0 0 0 0 0 0 0 0 0 0 0 0 0 0 0 0 0 0 0 0 0 0 0 0 0 0 0 0 0 0 0 0 0 0 0 0 0 0 0 0 0 0 0
0 0 0 0 0 0 0 0 0 0 0 0 0 0 0 0 0 0 0 0 0 0 0 0 0 0 0 0 0 0 0 0 0 0 0 0 0 0 0 0 0 0 0
0 0 0 0 0 0 0 0 0 0 0 0 0 0 0 0 0 0 0 0 0 0 0 0 0 0 0 0 0 0 0 0 0 0 0 0 0 0 0 0 0 0 0
0 0 0 0 0 0 0 0 0 0 0 0 0 0 0 0 0 0 0 0 0 0 0 0 0 0 0 0 0 0 0 0 0 0 0 0 0 0 0 0 0 0 0
0 0 0 0 0 0 0 0 0 0 0 0 0 0 0 0 0 0 0 0 0 0 0 0 0 0 0 0 0 0 0 0 0 0 0 0 0 0 0 0 0 0 0
0 0 0 0 0 0 0 0 0 0 0 0 0 0 0 0 0 0 0 0 0 0 0 0 0 0 0 0 0 0 0 0 0 0 0 0 0 0 0 0 0 0 0
0 0 0 0 0 0 0 0 0 0 0 0 0 0 0 0 0 0 0 0 0 0 0 0 0 0 0 0 0 0 0 0 0 0 0 0 0 0 0 0 0 0 0

GEFSSE_con_cape1000_204.txt.gz
Probability
13 13 29 32 32 35 35 39 45 42 45 48 45 42 52 52 55 52 48 52 45 48 45 42 39 39 29 26 16 19 19 23 16 19 13 6 10 13 16 16 13 3 6
13 19 29 29 29 29 29 32 32 39 39 39 42 42 45 48 48 42 45 42 42 42 45 42 42 39 32 26 23 16 19 19 23 13 13 13 13 10 6 13 10 6 13
13 16 19 26 26 26 29 29 29 32 32 35 35 32 35 39 35 32 35 39 39 39 39 39 42 42 35 26 26 16 13 19 26 13 10 3 0 13 6 6 3 0 6
13 13 19 19 19 23 23 23 23 26 26 26 26 26 23 23 26 29 26 29 29 32 29 39 32 39 35 29 26 23 16 23 16 13 3 0 0 6 10 10 6 3 6
13 13 19 19 19 19 23 23 23 23 19 19 16 19 19 23 19 19 26 26 26 23 13 16 19 23 35 29 23 16 19 23 19 13 3 0 0 6 10 13 10 6 13
13 13 19 19 19 19 19 19 16 19 19 16 16 16 16 19 16 16 19 26 23 19 13 16 16 13 19 26 19 16 16 23 6 3 3 0 0 10 13 19 13 13 16
16 16 19 19 19 19 19 16 16 13 16 16 16 16 13 13 10 13 13 10 10 16 10 10 10 13 10 13 13 16 19 13 3 0 0 0 0 16 13 16 19 16 13
16 16 16 19 19 16 16 16 13 10 10 10 10 13 6 6 3 3 3 6 6 10 16 10 10 6 6 6 10 10 10 0 0 0 0 0 3 13 19 16 16 23 13
13 10 10 10 10 10 6 6 6 3 3 3 3 3 3 3 6 3 3 3 6 6 10 16 13 10 10 6 6 10 0 0 0 0 0 0 3 13 13 16 19 23 23
10 6 3 3 6 3 3 3 3 3 3 3 3 3 3 3 0 3 3 3 3 3 6 10 16 10 10 10 10 0 0 0 0 0 0 0 3 10 13 16 13 13 19
3 3 3 3 0 0 3 3 3 3 3 3 3 0 0 0 0 0 0 0 3 3 3 6 13 10 10 6 3 0 0 0 0 0 0 0 3 6 3 6 10 6 13
3 3 3 3 3 0 0 0 3 3 0 0 0 0 0 0 0 0 0 0 0 0 3 3 6 3 3 0 0 0 0 0 0 0 0 0 0 6 6 10 10 10 13
3 3 3 3 3 0 0 0 0 0 0 0 0 0 0 0 0 0 0 0 0 0 0 0 0 0 0 0 0 0 0 0 0 0 0 0 0 0 3 6 6 3 6
0 0 0 0 0 0 0 0 0 0 0 0 0 0 0 0 0 0 0 0 0 0 0 0 0 0 0 0 0 0 0 0 0 0 0 0 0 0 0 0 0 6 6
0 0 0 0 0 0 0 0 0 0 0 0 0 0 0 0 0 0 0 0 0 0 0 0 0 0 0 0 0 0 0 0 0 0 0 0 0 0 0 0 0 3 3
0 0 0 0 0 0 0 0 0 0 0 0 0 0 0 0 0 0 0 0 0 0 0 0 0 0 0 0 0 0 0 0 0 0 0 0 0 0 0 0 0 3 0
0 0 0 0 0 0 0 0 0 0 0 0 0 0 0 0 0 0 0 0 0 0 0 0 0 0 0 0 0 0 0 0 0 0 0 0 0 0 0 0 3 3 0
0 0 0 0 0 0 0 0 0 0 0 0 0 0 0 0 0 0 0 0 0 0 0 0 0 0 0 0 0 0 0 0 0 0 0 0 0 0 0 0 0 0 0
0 0 0 0 0 0 0 0 0 0 0 0 0 0 0 0 0 0 0 0 0 0 0 0 0 0 0 0 0 0 0 0 0 0 0 0 0 0 0 0 0 0 0
0 0 0 0 0 0 0 0 0 0 0 0 0 0 0 0 0 0 0 0 0 0 0 0 0 0 0 0 0 0 0 0 0 0 0 0 0 0 0 0 0 0 0
0 0 0 0 0 0 0 0 0 0 0 0 0 0 0 0 0 0 0 0 0 0 0 0 0 0 0 0 0 0 0 0 0 0 0 0 0 0 0 0 0 0 0
0 0 0 0 0 0 0 0 0 0 0 0 0 0 0 0 0 0 0 0 0 0 0 0 0 0 0 0 0 0 0 0 0 0 0 0 0 0 0 0 0 0 0
0 0 0 0 0 0 0 0 0 0 0 0 0 0 0 0 0 0 0 0 0 0 0 0 0 0 0 0 0 0 0 0 0 0 0 0 0 0 0 0 0 0 0
0 0 0 0 0 0 0 0 0 0 0 0 0 0 0 0 0 0 0 0 0 0 0 0 0 0 0 0 0 0 0 0 0 0 0 0 0 0 0 0 0 0 0
0 0 0 0 0 0 0 0 0 0 0 0 0 0 0 0 0 0 0 0 0 0 0 0 0 0 0 0 0 0 0 0 0 0 0 0 0 0 0 0 0 0 0
0 0 0 0 0 0 0 0 0 0 0 0 0 0 0 0 0 0 0 0 0 0 0 0 0 0 0 0 0 0 0 0 0 0 0 0 0 0 0 0 0 0 0

GEFSSE_con_cape1000_210.txt.gz
Probability
6 23 39 42 45 45 42 42 42 52 58 58 55 58 55 55 52 55 55 52 45 45 42 35 42 32 29 29 23 13 10 13 16 16 13 6 10 10 13 19 13 3 10
10 26 39 39 39 42 45 42 42 39 39 45 52 52 55 55 55 52 52 48 45 48 39 32 32 32 26 19 16 16 13 10 10 10 10 6 6 6 6 10 6 0 6
16 23 29 39 39 42 42 42 35 39 39 39 39 39 39 39 48 45 48 42 45 45 42 39 35 35 29 19 16 16 16 16 13 10 6 0 0 3 10 10 6 6 10
16 23 23 29 35 35 35 35 39 35 32 35 32 32 35 35 35 39 42 39 39 35 35 35 32 35 35 26 19 13 16 16 16 13 0 0 0 6 16 10 13 10 10
13 23 23 23 26 29 29 29 29 29 29 29 32 29 26 26 29 26 26 29 32 32 26 32 26 29 26 19 19 19 13 10 10 3 0 0 0 10 16 16 16 13 10
10 16 23 23 23 26 26 26 23 26 23 23 23 23 19 23 23 16 13 13 16 23 23 16 13 16 23 23 23 23 19 10 6 3 3 0 0 6 19 16 16 13 16
13 16 19 23 19 19 19 19 19 19 19 23 23 23 19 19 13 10 10 10 10 10 10 13 10 10 13 10 10 10 10 10 0 0 0 0 0 3 10 13 16 16 13
16 16 19 19 19 19 19 19 19 19 19 19 19 13 13 13 10 6 3 6 6 6 10 6 10 10 10 10 10 10 10 3 0 0 0 0 0 6 13 13 13 16 16
13 13 16 19 19 19 19 19 19 19 19 13 10 6 3 3 3 3 3 3 3 3 6 10 6 6 10 6 13 10 6 0 0 0 0 0 0 10 16 19 16 13 13
13 13 10 13 13 13 13 13 10 6 3 3 3 3 3 3 3 3 0 0 3 3 3 3 10 3 6 10 10 10 6 0 0 0 0 0 3 6 6 6 13 10 13
10 10 6 6 10 6 3 3 3 3 3 3 3 3 3 3 3 0 0 0 0 3 3 3 3 6 0 0 6 3 0 0 0 0 0 0 3 6 10 3 10 13 10
10 6 3 3 3 3 3 0 0 0 3 3 3 3 3 0 0 0 0 0 0 0 0 0 0 0 0 0 0 0 0 0 0 0 0 0 3 6 10 6 3 3 6
6 6 3 3 3 0 0 0 0 0 0 0 0 0 0 0 0 0 0 0 0 0 0 0 0 0 0 0 0 0 0 0 0 0 0 0 0 0 6 3 3 3 3
6 3 3 3 3 0 0 0 0 0 0 0 0 0 0 0 0 0 0 0 0 0 0 0 0 0 0 0 0 0 0 0 0 0 0 0 0 0 3 3 3 3 0
3 0 0 3 3 0 0 0 0 0 0 0 0 0 0 0 0 0 0 0 0 0 0 0 0 0 0 0 0 0 0 0 0 0 0 0 0 0 0 3 3 3 3
0 0 0 0 0 0 0 0 0 0 0 0 0 0 0 0 0 0 0 0 0 0 0 0 0 0 0 0 0 0 0 0 0 0 0 0 0 0 0 0 3 3 3
0 0 0 0 0 0 0 0 0 0 0 0 0 0 0 0 0 0 0 0 0 0 0 0 0 0 0 0 0 0 0 0 0 0 0 0 0 0 0 0 0 3 3
0 0 0 0 0 0 0 0 0 0 0 0 0 0 0 0 0 0 0 0 0 0 0 0 0 0 0 0 0 0 0 0 0 0 0 0 0 0 0 0 0 0 0
0 0 0 0 0 0 0 0 0 0 0 0 0 0 0 0 0 0 0 0 0 0 0 0 0 0 0 0 0 0 0 0 0 0 0 0 0 0 0 0 0 0 0
0 0 0 0 0 0 0 0 0 0 0 0 0 0 0 0 0 0 0 0 0 0 0 0 0 0 0 0 0 0 0 0 0 0 0 0 0 0 0 0 0 0 0
0 0 0 0 0 0 0 0 0 0 0 0 0 0 0 0 0 0 0 0 0 0 0 0 0 0 0 0 0 0 0 0 0 0 0 0 0 0 0 0 0 0 0
0 0 0 0 0 0 0 0 0 0 0 0 0 0 0 0 0 0 0 0 0 0 0 0 0 0 0 0 0 0 0 0 0 0 0 0 0 0 0 0 0 0 0
0 0 0 0 0 0 0 0 0 0 0 0 0 0 0 0 0 0 0 0 0 0 0 0 0 0 0 0 0 0 0 0 0 0 0 0 0 0 0 0 0 0 0
0 0 0 0 0 0 0 0 0 0 0 0 0 0 0 0 0 0 0 0 0 0 0 0 0 0 0 0 0 0 0 0 0 0 0 0 0 0 0 0 0 0 0
0 0 0 0 0 0 0 0 0 0 0 0 0 0 0 0 0 0 0 0 0 0 0 0 0 0 0 0 0 0 0 0 0 0 0 0 0 0 0 0 0 0 0
0 0 0 0 0 0 0 0 0 0 0 0 0 0 0 0 0 0 0 0 0 0 0 0 0 0 0 0 0 0 0 0 0 0 0 0 0 0 0 0 0 0 0